Regional Weather Roundup
Issued by NWS

Home | Current Version | Previous Version | Graphics & Text | Print | Product List | Glossary On
Versions: 1 2 3 4 5 6 7 8 9 10 11 12 13 14 15 16 17 18 19 20 21 22 23 24 25 26 27 28 29 30 31 32 33 34 35 36 37 38 39 40 41 42 43 44 45 46 47 48 49 50
000
ASUS43 KMKX 240511
RWRWI

WISCONSIN REGIONAL WEATHER ROUNDUP
NATIONAL WEATHER SERVICE MILWAUKEE/SULLIVAN WI
1200 AM CDT TUE MAY 24 2016

NOTE: "FAIR" INDICATES FEW OR NO CLOUDS BELOW 12,000 FEET WITH NO
SIGNIFICANT WEATHER AND/OR OBSTRUCTIONS TO VISIBILITY.

WIZ001-002-006>008-014>016-023>028-240600-
NORTHWEST WISCONSIN

CITY           SKY/WX    TMP DP  RH WIND       PRES   REMARKS
SUPERIOR ARPT  LGT RAIN  61  61  98 CALM      29.79F
ASHLAND        HVY RAIN  60  60 100 S5        29.85R FOG
HAYWARD        CLOUDY    65  61  87 SW5       29.84R
SIREN          MOCLDY    62  60  94 S6        29.82F
CUMBERLAND     CLOUDY    61  55  82 S5        29.85S
RICE LAKE      CLOUDY    66  56  68 S7        29.86S
CHETEK         LGT RAIN  64  62  93 CALM      29.87R
LADYSMITH      CLOUDY    64  61  88 SW6       29.88R
EAU CLAIRE     LGT RAIN  64  63  96 NW3       29.86R
MENOMONIE      DRIZZLE   66  61  84 CALM      29.86R
NEW RICHMOND   CLOUDY    65  57  76 CALM      29.85R
OSCEOLA        CLOUDY    63  63 100 SE6       29.85F
$$

WIZ003>005-009-010-017-018-240600-
NORTH CENTRAL WISCONSIN

CITY           SKY/WX    TMP DP  RH WIND       PRES   REMARKS
MANITOWISH WTR CLOUDY    61  61 100 SE5       29.86S
ARBOR VITAE    CLOUDY    64  59  85 NW3       29.87R
WOODRUFF       CLOUDY    64  59  85 NW3       29.87R
RHINELANDER    CLOUDY    70  45  40 SW9       29.88R
EAGLE RIVER      N/A     67  43  42 W3        29.86R
LAND O LAKES   CLOUDY    66  56  70 CALM      29.87R
PHILLIPS       CLOUDY    64  61  90 CALM      29.86R
TOMAHAWK       CLOUDY    65  47  52 CALM      29.88R
MEDFORD        CLOUDY    64  53  67 S5        29.87S
MERRILL        CLOUDY    67  48  49 SW6       29.88R
$$

WIZ029-030-035-036-043>047-240600-
CENTRAL WISCONSIN

CITY           SKY/WX    TMP DP  RH WIND       PRES   REMARKS
WAUSAU         CLOUDY    70  47  43 SW7       29.87R
MOSINEE        MOCLDY    64  45  48 W7        29.89R
MARSHFIELD     MOCLDY    65  51  60 CALM      29.88R
STEVENS POINT  PTCLDY    67  45  45 SW3       29.88R
WAUPACA        CLEAR     63  50  62 CALM      29.88R
WAUTOMA        CLEAR     58  50  75 CALM      29.88R
WISC RAPIDS    CLEAR     68  45  43 CALM      29.88R
CAMP DOUGLAS   MOCLDY    58  55  89 S7        29.87R
$$

WIZ011>013-019>022-031-037>040-048>050-240600-
NORTHEAST WISCONSIN

CITY           SKY/WX    TMP DP  RH WIND       PRES   REMARKS
ANTIGO         PTCLDY    59  47  63 CALM      29.88S
SHAWANO        CLEAR     67  48  50 S5        29.87R
OCONTO         PTCLDY    62  49  63 S3        29.87R
STURGEON BAY   NOT AVBL
GREEN BAY      PTCLDY    64  43  46 S7        29.88S
MANITOWOC      CLOUDY    62  37  39 S9        29.91R
APPLETON       CLEAR     63  45  51 S6        29.87S
CLINTONVILLE   CLEAR     63  48  59 S6        29.87R
OSHKOSH        CLEAR     60  46  59 S9        29.88R
$$

WIZ032>034-041-042-053>061-240600-
SOUTHWEST WISCONSIN

CITY           SKY/WX    TMP DP  RH WIND       PRES   REMARKS
LA CROSSE      CLOUDY    68  59  73 SE7       29.85R
SPARTA         CLOUDY    62  56  79 CALM      29.87R
VIROQUA        CLOUDY    69  47  45 S7        29.89R
BOSCOBEL       NOT AVBL
PRAIRIE DU CHI PTCLDY    71  46  42 CALM      29.86S
PLATTEVILLE    CLOUDY    67  47  48 S8        29.90S
$$

WIZ056-057-062-063-064-067-068-240600-
SOUTH CENTRAL WISCONSIN

CITY           SKY/WX    TMP DP  RH WIND       PRES   REMARKS
REEDSBURG      CLEAR     66  47  50 CALM      29.88R
BARABOO/DELLS  CLEAR     66  44  45 SW6       29.89R
LONE ROCK      CLOUDY    59  49  69 CALM      29.89R
MINERAL POINT  CLOUDY    66  43  42 S6        29.91R
MADISON        CLEAR     64  49  57 S3        29.89R
MIDDLETON      CLEAR     63  48  57 CALM      29.90R
WATERTOWN      CLEAR     63  46  53 CALM      29.90R
MONROE         CLEAR     66  45  45 S9        29.91R
JANESVILLE     CLEAR     63  46  55 S3        29.90S
$$

WIZ051-052-058>065-066-070>072-240600-
SOUTHEAST WISCONSIN

CITY           SKY/WX    TMP DP  RH WIND       PRES   REMARKS
MILWAUKEE      CLOUDY    62  38  40 S7        29.92S
WAUKESHA       CLOUDY    61  36  39 S5        29.93S
MILWAUKEE/TIMM PTCLDY    63  32  31 S7        29.92S
RACINE         CLOUDY    62  40  44 S10       29.94S
BURLINGTON     CLOUDY    54  44  69 CALM      29.92S
KENOSHA        CLOUDY    61  41  47 S7        29.92F
FOND DU LAC    CLEAR     63  44  50 S6        29.89S
SHEBOYGAN      CLOUDY    59  39  47 S8        29.91R
WEST BEND      CLOUDY    61  34  36 S3        29.91S
JUNEAU         CLEAR     62  45  53 SE7       29.91S
$$

LSZ147-162-240600-
LAKE SUPERIOR

STATION/POSITION TIME  TEMP    WIND        PRES    WAVE
                       AIR SEA DIR/SP/G            HT/PER
                 (UTC) (F)     (DEG/KT/KT) (MB)    (FT/S)
W MID LAKE BUOY  0450   47 38  220/  2/  4 1009.0S   1
DEVILS ISLAND    0500   60     170/ 11/ 13 1009.5R
PORT WING        0320          240/  4/ 12 1009.5R
SAXON HARBOR     0440   65     190/  6/  8 1008.8R
$$

LMZ867-665-643>646-240600-
LAKE MICHIGAN

STATION/POSITION TIME  TEMP    WIND        PRES    WAVE
                       AIR SEA DIR/SP/G            HT/PER
                 (UTC) (F)     (DEG/KT/KT) (MB)    (FT/S)
CHAMBERS ISLAND  0400   62     170/  5/  8 1011.5F
N MID LAKE BUOY  0450   48 44  180/ 10/ 10 1012.0F   2/ 4
NORTHPORT PIER   0400   62     160/  6/ 12 1011.9S
SISTER BAY       0420   65     180/ 17/ 19   N/A
ALGOMA LAKESHORE 0416          220/ 11/ 13   N/A
KEWAUNEE LAKESHO 0400   54     170/  9/ 10 1011.6F
SHEBOYGAN LAKESH 0500   62     190/ 16/ 19 1013.2R
PORT WASHINGTON  0440   58     200/  4/  6 1013.9R
S MID LAKE BUOY  0450   56 49  140/ 10/ 12 1013.6R   0
KENOSHA   LAKESH 0500   58     170/ 12/ 15 1013.2S
$$

TC  - TEMPERATURE IN CELSIUS
VSB - VISIBILITY IN STATUTE MILES
WCI - WIND CHILL INDEX
HX  - HEAT INDEX




USA.gov is the U.S. government's official web portal to all federal, state and local government web resources and services.